Location: Newark
(33.6439°N, 114.9881°W)
Time: 15:57:15
(UTC+00:00)

Tiros 1 - Pass Details

Date: 28 July 2019
Orbit: 631 x 664 km, 48.4° (Epoch: 23 August)

Event Time Altitude Azimuth Distance (km) Brightness Sun altitude
Rises 01:05:07 0° 294° (WNW) 2,991 12.1 18.8°
Reaches altitude 10° 01:07:57 10° 278° (W) 2,072 12.3 18.2°
Maximum altitude 01:11:30 21° 230° (SW) 1,469 9.7 17.5°
Drops below altitude 10° 01:15:02 10° 182° (S) 2,052 9.7 16.8°
Sets 01:17:50 0° 166° (SSE) 2,953 10.3 16.2°
